Overview Statistics Trail Chart Weather Telemetry Raw packets
 

This is the latest recevied weather packets stored in our database for station/object TB1YZC-13. If no packets are shown the sender has not sent any weather packets the latest 10 day(s).

<< 18 19 20 21 22 23 24 >>
Time Temp. Humidity Pressure Rain* Wind** Luminosity Snow
1788383195 21.67° C 88% 1018.4 hPa - - - -
1788382592 21.11° C 89% 1018.5 hPa - - - -
1788381989 21.67° C 89% 1018.4 hPa - - - -
1788381386 21.11° C 91% 1018.4 hPa - - - -
1788380798 21.11° C 90% 1018.5 hPa - - - -
1788380178 21.11° C 92% 1018.5 hPa - - - -
1788379576 21.11° C 90% 1018.6 hPa - - - -
1788378972 21.11° C 90% 1018.6 hPa - - - -
1788378369 21.11° C 91% 1018.6 hPa - - - -
1788377766 21.67° C 90% 1018.7 hPa - - - -
1788377162 21.11° C 91% 1018.8 hPa - - - -
1788376559 21.11° C 91% 1018.7 hPa - - - -
1788375956 21.67° C 89% 1018.8 hPa - - - -
1788375353 21.67° C 88% 1018.8 hPa - - - -
1788374750 21.67° C 89% 1018.9 hPa - - - -
1788374144 22.22° C 87% 1018.8 hPa - - - -
1788373540 22.22° C 84% 1018.7 hPa - - - -
1788372937 22.22° C 85% 1018.7 hPa - - - -
1788372334 22.22° C 86% 1018.6 hPa - - - -
1788371731 22.22° C 87% 1018.5 hPa - - - -
1788371128 22.22° C 87% 1018.4 hPa - - - -
1788370524 22.22° C 87% 1018.3 hPa - - - -
1788369921 22.22° C 86% 1018.1 hPa - - - -
1788369328 22.78° C 85% 1018.1 hPa - - - -
1788368715 22.78° C 83% 1018.1 hPa - - - -

* Rain since midnight (hover to see other rain measurements)
** Current wind speed in m/s (hover to see current wind gust speed)